Location: De Greiden
(52.9496°N, 5.9137°E)
Time: 22:39:13
(UTC+00:00)

Okean 1-7 Rocket - Pass Details

Date: 24 January 2021
Orbit: 615 x 650 km, 82.5° (Epoch: 01 March)

Event Time Altitude Azimuth Distance (km) Brightness Sun altitude
Rises 17:24:03 0° 181° (S) 2,952 7.3 -11.5°
Reaches altitude 10° 17:26:18 10° 179° (S) 2,049 6.4 -11.8°
Maximum altitude 17:30:49 68° 97° (E) 707 3.6 -12.5°
Drops below altitude 10° 17:35:23 10° 15° (NNE) 2,069 6.0 -13.1°
Sets 17:37:39 0° 13° (NNE) 2,983 6.8 -13.5°
